NOAA 16 DEB

Satellite information

Favourite Embed

Satellite Type and Status

DEBRISIN ORBIT

Key statistics

Satellite NOAA 16 DEB at a glance.

Uptime

9109

Days in orbit

Revolutions

≈ 14.4

Per day

Orbit

SSO

Sun Synchronous Orbit

Inclination

99.0

Latest

Satellite identification and parameters

Extended collection of information and parameters for NOAA 16 DEB.

Object identification

Identified? True

Debris? True

Object name: NOAA 16 DEB

International designator: 2000-055TK

Object number (NORAD): 42415

Object ID (CCSDS): 42415

Country: UNITED STATES OF AMERICA (US)

Current information (Y/N): Y

RCS size: SMALL

Orbital parameters

Period: 99.927 minutes

Inclination: 99.0213 deg

SMA: 7133.158 km

Apoapsis: 772.273 km

Periapsis: 737.774 km

RAAN: 47.3559 deg

Eccentricy: 0.00241823

Argument of periapsis: 290.9644 deg

Mean anomaly: 68.8955 deg

Mean motion: 14.41053022 rev/day

Mean motion (dot): 0.00006382 rev/day2

B* drag term: 0.001989941 1/REarth

Two-line elements (TLE)

Creation date: Aug. 27, 2025, 8:01 p.m.

Reference frame: TEME

Reference center: EARTH

Epoch: Aug. 27, 2025, 10:22 a.m. UTC

TLE line 0: 0 NOAA 16 DEB

TLE line 1: 1 42415U 00055TK 25239.43231197 .00006382 00000-0 19899-2 0 9994

TLE line 2: 2 42415 99.0213 47.3559 0024182 290.9644 68.8955 14.41053022491991

Live tracking on map

Real-time ground track for satellite NOAA 16 DEB.

In-orbit conjunctions

A list of the most updated potential collisions computed for object NOAA 16 DEB.

Target Orbit TCA Probability of collision Miss distance Type
CBERS 1 SSO 2025-03-30 06:12:25 0.0002072939 315.0 (m) PAYLOAD
FENGYUN 1C DEB SSO 2024-11-11 22:11:34 0.0001931703 669.0 (m) DEBRIS
ORBCOMM FM 28 LEO 2024-11-05 19:11:15 0.0001540437 439.0 (m) PAYLOAD
SKIPPER SSO 2024-09-05 23:08:32 0.0001775796 708.0 (m) PAYLOAD
COSMOS 1937 LEO 2024-07-27 21:13:28 0.0002301915 283.0 (m) PAYLOAD

Associated space launch

The NOAA K, L and M POES satellites begin the fifth generation of improved environmental monitoring in support of NOAA missions. The instrument payload has significant improvements and additions/deletions. The instrument changes have effected the spacecraft subsystems and data formats.

NOAA 16 DEB was lifted into orbit during the mission ‘Titan II SLV | NOAA 16’, on board a Titan II SLV space rocket.

The launch took place on Sept. 21, 2000, 10:22 a.m. from Space Launch Complex 4W.

For more information about the launch, click the button.

Launch to space Titan II SLV | NOAA 16
Titan II SLV | NOAA 16

Agency: N/A

Status: Launch Successful

Launch date: Sept. 21, 2000, 10:22 a.m. UTC

Rocket: Titan II SLV

Launch pad: Space Launch Complex 4W

Location: Vandenberg SFB, CA, USA

...

Latest news about this satellite

There are no fresh news available about this satellite. Check back as we update our databases every day.


Newsletter sign-up

Weekly statistics, charts and insights to help you stay on top of the space industry.